Вернуться в каталог

TITAN 34D TRANSTAGE DEB

АктивенHEO
NORAD 22818·DEBRIS·🇺🇸 United States

Запущен Sep 2, 1988 с Cape Canaveral Space Force Station

Loading…

Ближайшие Пролёты (ближайшие 24 часа)

TLE

СвежийSource: Space-Track

Эпоха: Sep 12, 2026, 21:14 UTC

1 22818U 88077F   26255.88474630  .00000553  00000-0  15332-2 0  9990
2 22818  26.7479 146.1638 6967359 221.8721  56.0900  2.59977364 66481

Отслеживайте TITAN 34D TRANSTAGE DEB в реальном времени с AllMySat

Download on the App Store